• en Suisse
  • Liste des pays
  • À 7 jours
  • Température de l'eau
  • Carte satellitaire
  • Carte météo
  • Widgets météo
  • user-avatar
    Se connecter

    Météo par heure à Fagernes

    Ce jour, 16 Juillet, Lundi

    Heure Température Précipitation Vent Pression Humidité
    00:00 +18°C° 0 mm 1 m/s 726 mmHg 84%
    01:00 +15°C° 0 mm 0 m/s 726 mmHg 87%
    02:00 +14°C° 0 mm 0 m/s 726 mmHg 88%
    03:00 +14°C° 0 mm 0 m/s 727 mmHg 89%
    04:00 +13°C° 0 mm 0 m/s 727 mmHg 90%
    05:00 +16°C° 0 mm 1 m/s 727 mmHg 83%
    06:00 +19°C° 0 mm 1 m/s 727 mmHg 75%
    07:00 +21°C° 0 mm 1 m/s 727 mmHg 67%
    08:00 +23°C° 0 mm 2 m/s 727 mmHg 58%
    09:00 +24°C° 0 mm 2 m/s 727 mmHg 50%
    10:00 +25°C° 0 mm 3 m/s 727 mmHg 41%
    11:00 +26°C° 0 mm 3 m/s 727 mmHg 38%
    12:00 +27°C° 0 mm 3 m/s 727 mmHg 34%
    13:00 +28°C° 0 mm 4 m/s 727 mmHg 31%
    14:00 +28°C° 0 mm 4 m/s 727 mmHg 31%
    15:00 +28°C° 0 mm 4 m/s 727 mmHg 31%
    16:00 +28°C° 0 mm 4 m/s 727 mmHg 31%
    17:00 +27°C° 0 mm 4 m/s 727 mmHg 34%
    18:00 +27°C° 0 mm 4 m/s 727 mmHg 38%
    19:00 +26°C° 0 mm 3 m/s 727 mmHg 41%
    20:00 +22°C° 0 mm 3 m/s 727 mmHg 50%
    21:00 +19°C° 0 mm 2 m/s 727 mmHg 59%
    22:00 +18°C° 0 mm 1 m/s 727 mmHg 68%
    23:00 +16°C° 0 mm 1 m/s 727 mmHg 71%

    Demain, 17 Juillet, Mardi

    Heure Température Précipitation Vent Pression Humidité
    00:00 +15°C° 0 mm 1 m/s 727 mmHg 74%
    01:00 +13°C° 0 mm 0 m/s 727 mmHg 77%
    02:00 +13°C° 0 mm 0 m/s 727 mmHg 77%
    03:00 +12°C° 0 mm 0 m/s 727 mmHg 78%
    04:00 +13°C° 0 mm 1 m/s 727 mmHg 78%
    05:00 +16°C° 0 mm 1 m/s 727 mmHg 69%
    06:00 +19°C° 0 mm 1 m/s 727 mmHg 61%
    07:00 +21°C° 0 mm 1 m/s 727 mmHg 53%
    08:00 +23°C° 0,2 mm 2 m/s 727 mmHg 53%
    09:00 +24°C° 0,2 mm 2 m/s 727 mmHg 53%
    10:00 +25°C° 0,2 mm 3 m/s 727 mmHg 53%
    11:00 +25°C° 0,7 mm 3 m/s 727 mmHg 55%
    12:00 +25°C° 0,7 mm 3 m/s 727 mmHg 58%
    13:00 +25°C° 0,7 mm 3 m/s 727 mmHg 60%
    14:00 +25°C° 1,1 mm 2 m/s 727 mmHg 61%
    15:00 +24°C° 1,1 mm 2 m/s 727 mmHg 62%
    16:00 +24°C° 1,1 mm 2 m/s 727 mmHg 63%
    17:00 +24°C° 0,3 mm 1 m/s 727 mmHg 66%
    18:00 +23°C° 0,3 mm 1 m/s 726 mmHg 69%
    19:00 +22°C° 0,3 mm 1 m/s 726 mmHg 71%
    20:00 +21°C° 0,2 mm 1 m/s 726 mmHg 74%
    21:00 +20°C° 0,2 mm 1 m/s 726 mmHg 77%
    22:00 +19°C° 0,2 mm 1 m/s 726 mmHg 80%
    23:00 +19°C° 0,4 mm 1 m/s 726 mmHg 83%

    Après-demain, 18 Juillet, Mercredi

    Heure Température Précipitation Vent Pression Humidité
    00:00 +18°C° 0,4 mm 1 m/s 726 mmHg 86%
    01:00 +18°C° 0,4 mm 1 m/s 726 mmHg 89%
    02:00 +18°C° 0,4 mm 1 m/s 726 mmHg 90%
    03:00 +16°C° 0,4 mm 1 m/s 726 mmHg 92%
    04:00 +16°C° 0,4 mm 1 m/s 726 mmHg 93%
    05:00 +18°C° 0,8 mm 1 m/s 726 mmHg 93%
    06:00 +18°C° 0,8 mm 1 m/s 726 mmHg 92%
    07:00 +19°C° 0,8 mm 1 m/s 726 mmHg 92%
    08:00 +19°C° 1 mm 1 m/s 726 mmHg 89%
    09:00 +20°C° 1 mm 1 m/s 726 mmHg 87%
    10:00 +20°C° 1 mm 1 m/s 726 mmHg 84%
    11:00 +20°C° 0,8 mm 1 m/s 726 mmHg 83%
    12:00 +20°C° 0,8 mm 1 m/s 726 mmHg 81%
    13:00 +20°C° 0,8 mm 1 m/s 726 mmHg 80%
    14:00 +20°C° 0,5 mm 1 m/s 726 mmHg 81%
    15:00 +20°C° 0,5 mm 1 m/s 726 mmHg 82%
    16:00 +20°C° 0,5 mm 1 m/s 726 mmHg 83%
    17:00 +20°C° 0,2 mm 1 m/s 725 mmHg 84%
    18:00 +17°C° 0,2 mm 0 m/s 725 mmHg 85%
    19:00 +17°C° 0,2 mm 0 m/s 725 mmHg 86%
    20:00 +16°C° 0 mm 0 m/s 725 mmHg 89%
    21:00 +14°C° 0 mm 0 m/s 725 mmHg 92%
    22:00 +13°C° 0 mm 0 m/s 725 mmHg 95%
    23:00 +13°C° 0 mm 0 m/s 725 mmHg 95%

    19 Juillet, Jeudi

    Heure Température Précipitation Vent Pression Humidité
    00:00 +13°C° 0 mm 1 m/s 725 mmHg 95%
    01:00 +13°C° 0 mm 1 m/s 725 mmHg 96%
    02:00 +13°C° 0 mm 1 m/s 725 mmHg 95%
    03:00 +12°C° 0 mm 1 m/s 725 mmHg 95%
    04:00 +12°C° 0 mm 1 m/s 725 mmHg 95%
    05:00 +14°C° 0 mm 1 m/s 726 mmHg 91%
    06:00 +16°C° 0 mm 1 m/s 726 mmHg 87%
    07:00 +18°C° 0 mm 1 m/s 726 mmHg 82%
    08:00 +20°C° 0 mm 1 m/s 726 mmHg 73%
    09:00 +20°C° 0 mm 0 m/s 726 mmHg 64%
    10:00 +22°C° 0 mm 0 m/s 726 mmHg 55%
    11:00 +23°C° 0 mm 0 m/s 726 mmHg 52%
    12:00 +26°C° 0 mm 1 m/s 726 mmHg 48%
    13:00 +27°C° 0 mm 1 m/s 726 mmHg 44%
    14:00 +27°C° 0 mm 1 m/s 726 mmHg 43%
    15:00 +27°C° 0 mm 1 m/s 725 mmHg 43%
    16:00 +26°C° 0 mm 1 m/s 725 mmHg 43%
    17:00 +25°C° 0 mm 1 m/s 725 mmHg 47%
    18:00 +25°C° 0 mm 1 m/s 725 mmHg 52%
    19:00 +24°C° 0 mm 1 m/s 725 mmHg 56%
    20:00 +22°C° 0 mm 1 m/s 725 mmHg 62%
    21:00 +20°C° 0 mm 1 m/s 724 mmHg 69%
    22:00 +16°C° 0 mm 0 m/s 724 mmHg 75%
    23:00 +15°C° 0 mm 0 m/s 724 mmHg 79%

    20 Juillet, Vendredi

    Heure Température Précipitation Vent Pression Humidité
    00:00 +14°C° 0 mm 0 m/s 724 mmHg 83%
    01:00 +13°C° 0 mm 0 m/s 724 mmHg 86%
    02:00 +13°C° 0 mm 0 m/s 724 mmHg 88%
    03:00 +13°C° 0 mm 0 m/s 724 mmHg 89%
    04:00 +13°C° 0 mm 0 m/s 724 mmHg 90%
    05:00 +16°C° 0 mm 1 m/s 724 mmHg 85%
    06:00 +19°C° 0 mm 1 m/s 724 mmHg 79%
    07:00 +20°C° 0 mm 1 m/s 724 mmHg 74%
    08:00 +22°C° 0,1 mm 1 m/s 724 mmHg 68%
    09:00 +23°C° 0,1 mm 1 m/s 723 mmHg 62%
    10:00 +24°C° 0,1 mm 1 m/s 723 mmHg 56%
    11:00 +25°C° 0,1 mm 1 m/s 723 mmHg 51%
    12:00 +26°C° 0,1 mm 1 m/s 723 mmHg 45%
    13:00 +27°C° 0,1 mm 1 m/s 723 mmHg 40%
    14:00 +27°C° 0 mm 2 m/s 723 mmHg 38%
    15:00 +27°C° 0 mm 2 m/s 723 mmHg 36%
    16:00 +27°C° 0 mm 2 m/s 723 mmHg 33%
    17:00 +26°C° 0 mm 2 m/s 723 mmHg 37%
    18:00 +26°C° 0 mm 2 m/s 723 mmHg 40%
    19:00 +25°C° 0 mm 2 m/s 723 mmHg 44%
    20:00 +22°C° 0 mm 1 m/s 723 mmHg 52%
    21:00 +20°C° 0 mm 1 m/s 723 mmHg 61%
    22:00 +16°C° 0 mm 1 m/s 723 mmHg 69%
    23:00 +15°C° 0 mm 1 m/s 723 mmHg 71%

    21 Juillet, Samedi

    Heure Température Précipitation Vent Pression Humidité
    00:00 +15°C° 0 mm 1 m/s 723 mmHg 74%
    01:00 +14°C° 0 mm 1 m/s 723 mmHg 76%
    02:00 +14°C° 0 mm 1 m/s 723 mmHg 77%
    03:00 +14°C° 0 mm 1 m/s 723 mmHg 79%
    04:00 +14°C° 0 mm 1 m/s 723 mmHg 81%
    05:00 +16°C° 0 mm 1 m/s 723 mmHg 75%
    06:00 +19°C° 0 mm 1 m/s 723 mmHg 70%
    07:00 +21°C° 0 mm 1 m/s 723 mmHg 64%
    08:00 +22°C° 0 mm 1 m/s 723 mmHg 57%
    09:00 +22°C° 0 mm 0 m/s 723 mmHg 51%
    10:00 +24°C° 0 mm 0 m/s 723 mmHg 44%
    11:00 +25°C° 0 mm 0 m/s 723 mmHg 41%
    12:00 +28°C° 0 mm 1 m/s 723 mmHg 38%
    13:00 +29°C° 0 mm 1 m/s 723 mmHg 36%
    14:00 +29°C° 0 mm 1 m/s 723 mmHg 36%
    15:00 +28°C° 0 mm 1 m/s 723 mmHg 37%
    16:00 +28°C° 0 mm 2 m/s 723 mmHg 38%
    17:00 +27°C° 0 mm 1 m/s 723 mmHg 42%
    18:00 +26°C° 0 mm 1 m/s 722 mmHg 46%
    19:00 +25°C° 0 mm 1 m/s 722 mmHg 50%
    20:00 +23°C° 0 mm 2 m/s 723 mmHg 55%
    21:00 +20°C° 0 mm 2 m/s 723 mmHg 59%
    22:00 +19°C° 0 mm 2 m/s 723 mmHg 64%
    23:00 +18°C° 0 mm 2 m/s 723 mmHg 66%
    Voir plus